Cooperstown, ND

7:24 PM CDT on April 25, 2017 (GMT -0500)
Cooperstown

Weather History for KS32 - November, 2013

Change the Weather History Date:

Tuesday, November 12, 2013

  Actual Average (KJMS) Record (KJMS)
Temperature  
Mean Temperature 23 °F -  
Max Temperature 41 °F 34 °F 67 °F (1999)
Min Temperature 5 °F 18 °F -13 °F (1911)
Degree Days  
Heating Degree Days 42    
Moisture  
Dew Point 16 °F    
Average Humidity 76    
Maximum Humidity 100    
Minimum Humidity 49    
Precipitation  
Precipitation 0.00 in - - ()
Sea Level Pressure  
Sea Level Pressure 30.45 in    
Wind  
Wind Speed 10 mph (SW)    
Max Wind Speed 18 mph    
Max Gust Speed 26 mph    
Visibility 10 miles    
Events      
Averages and records for this station are not official NWS values.
T = Trace of Precipitation, MM = Missing Value Source: NWS Daily Summary

Daily Weather History Graph

Daily Weather History Graph

Search for Another Location

Airport or City:

Trip Planner

Search our weather history database for the weather conditions in past years. The results will help you decide how hot, cold, wet, or windy it might be!

Date:

Astronomy

Nov. 12, 2013 Rise Set
Actual Time 7:33 AM CST 4:59 PM CST
Civil Twilight 6:59 AM CST 5:32 PM CST
Nautical Twilight 6:22 AM CST 6:09 PM CST
Astronomical Twilight 5:46 AM CST 6:45 PM CST
Moon 2:32 PM CST (11/12) 2:04 AM CST (11/12)
Length of Visible Light 10h 33m
Length of Day
9h 26m
Waxing Gibbous, 76% of the Moon is Illuminated
Nov 12
Waxing Gibbous
Nov 17
Full
Nov 25
Last Quarter
Dec 2
New
Dec 9
First Quarter

Hourly Weather History & Observations

Time (CST) Temp. Windchill Dew Point Humidity Pressure Visibility Wind Dir Wind Speed Gust Speed Precip Events Conditions
12:15 AM 5.0 °F -6.9 °F 1.4 °F 85% 30.68 in 10.0 mi SW 6.9 mph - N/A   Clear
12:35 AM 5.0 °F -6.9 °F 1.4 °F 85% 30.69 in 10.0 mi SW 6.9 mph - N/A   Clear
12:55 AM 5.0 °F -5.6 °F -0.4 °F 78% 30.68 in 10.0 mi SW 5.8 mph - N/A   Clear
1:15 AM 5.0 °F -5.6 °F -0.4 °F 78% 30.68 in 10.0 mi SW 5.8 mph - N/A   Clear
1:35 AM 5.0 °F -8.1 °F 1.4 °F 85% 30.67 in 10.0 mi SW 8.1 mph - N/A   Clear
1:55 AM 5.0 °F -8.1 °F 1.4 °F 85% 30.66 in 10.0 mi SW 8.1 mph - N/A   Clear
2:15 AM 6.8 °F -5.9 °F 3.2 °F 85% 30.66 in 10.0 mi SW 8.1 mph - N/A   Clear
2:35 AM 6.8 °F -5.9 °F 3.2 °F 85% 30.66 in 10.0 mi SW 8.1 mph - N/A   Clear
2:55 AM 6.8 °F -3.5 °F 3.2 °F 85% 30.65 in 10.0 mi SW 5.8 mph - N/A   Clear
3:15 AM 6.8 °F -6.9 °F 3.2 °F 85% 30.65 in 10.0 mi SW 9.2 mph - N/A   Clear
3:35 AM 8.6 °F -3.7 °F 5.0 °F 85% 30.64 in 10.0 mi SW 8.1 mph - N/A   Clear
3:55 AM 8.6 °F -2.6 °F 5.0 °F 85% 30.64 in 10.0 mi SW 6.9 mph - N/A   Clear
4:15 AM 8.6 °F -2.6 °F 5.0 °F 85% 30.63 in 10.0 mi SW 6.9 mph - N/A   Clear
4:35 AM 8.6 °F -2.6 °F 5.0 °F 85% 30.62 in 10.0 mi SW 6.9 mph - N/A   Clear
4:55 AM 8.6 °F -2.6 °F 5.0 °F 85% 30.62 in 10.0 mi SW 6.9 mph - N/A   Clear
5:15 AM 8.6 °F -2.6 °F 5.0 °F 85% 30.62 in 10.0 mi SW 6.9 mph - N/A   Clear
5:35 AM 10.4 °F -1.5 °F 6.8 °F 85% 30.62 in 10.0 mi SSW 8.1 mph - N/A   Clear
5:55 AM 10.4 °F -3.3 °F 6.8 °F 85% 30.61 in 10.0 mi SSW 10.4 mph - N/A   Clear
6:15 AM 10.4 °F -4.1 °F 6.8 °F 85% 30.60 in 10.0 mi SW 11.5 mph - N/A   Clear
6:35 AM 10.4 °F -2.4 °F 6.8 °F 85% 30.59 in 10.0 mi SW 9.2 mph - N/A   Clear
6:55 AM 10.4 °F -2.4 °F 6.8 °F 85% 30.60 in 10.0 mi SW 9.2 mph - N/A   Clear
7:15 AM 10.4 °F -1.5 °F 6.8 °F 85% 30.60 in 10.0 mi SW 8.1 mph - N/A   Clear
7:35 AM 10.4 °F -0.4 °F 6.8 °F 85% 30.59 in 10.0 mi South 6.9 mph - N/A   Clear
7:55 AM 10.4 °F -0.4 °F 8.6 °F 92% 30.59 in 10.0 mi SSW 6.9 mph - N/A   Clear
8:15 AM 14.0 °F 2.0 °F 10.4 °F 86% 30.57 in 10.0 mi SSW 9.2 mph - N/A   Clear
8:35 AM 15.8 °F 2.7 °F 10.4 °F 79% 30.57 in 10.0 mi SSW 11.5 mph - N/A   Clear
8:55 AM 17.6 °F 5.7 °F 14.0 °F 86% 30.56 in 10.0 mi SW 10.4 mph - N/A   Clear
9:15 AM 19.4 °F 6.0 °F 14.0 °F 80% 30.55 in 10.0 mi SW 13.8 mph - N/A   Clear
9:35 AM 21.2 °F 8.3 °F 15.8 °F 80% 30.55 in 10.0 mi SW 13.8 mph - N/A   Clear
9:55 AM 23.0 °F 11.1 °F 17.6 °F 80% 30.54 in 10.0 mi SW 12.7 mph - N/A   Clear
10:15 AM 26.6 °F 14.3 °F 19.4 °F 74% 30.53 in 10.0 mi SW 16.1 mph - N/A   Clear
10:35 AM 28.4 °F 17.0 °F 19.4 °F 69% 30.52 in 10.0 mi SW 15.0 mph - N/A   Clear
10:55 AM 28.4 °F 17.0 °F 19.4 °F 69% 30.50 in 10.0 mi SW 15.0 mph - N/A   Clear
11:15 AM 32.0 °F 21.2 °F 21.2 °F 64% 30.49 in 10.0 mi SW 16.1 mph 23.0 mph N/A   Clear
11:35 AM 32.0 °F 20.8 °F 21.2 °F 64% 30.47 in 10.0 mi SW 17.3 mph 20.7 mph N/A   Clear
11:55 AM 32.0 °F 20.5 °F 21.2 °F 64% 30.47 in 10.0 mi SW 18.4 mph - N/A   Clear
12:15 PM 33.8 °F 23.5 °F 21.2 °F 60% 30.46 in 10.0 mi SW 16.1 mph 23.0 mph N/A   Clear
12:35 PM 35.6 °F 25.5 °F 21.2 °F 56% 30.45 in 10.0 mi SW 17.3 mph - N/A   Clear
12:55 PM 37.4 °F 28.2 °F 21.2 °F 52% 30.45 in 10.0 mi SW 16.1 mph 24.2 mph N/A   Clear
1:15 PM 37.4 °F 28.2 °F 21.2 °F 52% 30.44 in 10.0 mi SSW 16.1 mph - N/A   Clear
1:35 PM 37.4 °F 28.5 °F 21.2 °F 52% 30.42 in 10.0 mi SSW 15.0 mph - N/A   Clear
1:55 PM 39.2 °F 30.5 °F 21.2 °F 49% 30.41 in 10.0 mi SW 16.1 mph - N/A   Clear
2:15 PM 39.2 °F 30.2 °F 21.2 °F 49% 30.41 in 10.0 mi SW 17.3 mph 20.7 mph N/A   Clear
2:35 PM 39.2 °F 30.2 °F 23.0 °F 52% 30.40 in 10.0 mi SW 17.3 mph - N/A   Clear
2:55 PM 41.0 °F 33.1 °F 23.0 °F 49% 30.39 in 10.0 mi SW 15.0 mph 20.7 mph N/A   Clear
3:15 PM 41.0 °F 33.5 °F 23.0 °F 49% 30.38 in 10.0 mi SW 13.8 mph 20.7 mph N/A   Clear
3:35 PM 39.2 °F 30.5 °F 23.0 °F 52% 30.36 in 10.0 mi SSW 16.1 mph - N/A   Clear
3:55 PM 39.2 °F 30.8 °F 23.0 °F 52% 30.36 in 10.0 mi SW 15.0 mph 18.4 mph N/A   Clear
4:15 PM 39.2 °F 31.6 °F 23.0 °F 52% 30.34 in 10.0 mi SSW 12.7 mph - N/A   Clear
4:35 PM 37.4 °F 29.8 °F 23.0 °F 56% 30.34 in 10.0 mi SSW 11.5 mph - N/A   Clear
4:55 PM 35.6 °F 28.0 °F 23.0 °F 60% 30.33 in 10.0 mi South 10.4 mph - N/A   Clear
5:15 PM 32.0 °F 22.5 °F 23.0 °F 69% 30.33 in 10.0 mi SSW 12.7 mph - N/A   Clear
5:35 PM 32.0 °F 22.1 °F 23.0 °F 69% 30.31 in 10.0 mi South 13.8 mph - N/A   Clear
5:55 PM 32.0 °F 23.0 °F 21.2 °F 64% 30.31 in 10.0 mi South 11.5 mph - N/A   Clear
6:15 PM 30.2 °F 20.2 °F 21.2 °F 69% 30.30 in 10.0 mi South 12.7 mph - N/A   Clear
6:35 PM 28.4 °F 17.5 °F 21.2 °F 74% 30.29 in 10.0 mi South 13.8 mph - N/A   Clear
6:55 PM 28.4 °F 16.6 °F 21.2 °F 74% 30.28 in 10.0 mi SSW 16.1 mph - N/A   Clear
7:15 PM 28.4 °F 16.2 °F 23.0 °F 80% 30.27 in 10.0 mi SSW 17.3 mph 20.7 mph N/A   Clear
7:35 PM 28.4 °F 16.6 °F 23.0 °F 80% 30.25 in 10.0 mi SSW 16.1 mph - N/A   Clear
7:55 PM 28.4 °F 18.0 °F 23.0 °F 80% 30.24 in 10.0 mi SSW 12.7 mph 21.9 mph N/A   Clear
8:15 PM 28.4 °F 17.5 °F 23.0 °F 80% 30.23 in 10.0 mi SSW 13.8 mph 18.4 mph N/A   Clear
8:35 PM 28.4 °F 16.2 °F 24.8 °F 86% 30.22 in 10.0 mi SSW 17.3 mph 25.3 mph N/A   Clear
8:55 PM 30.2 °F 18.5 °F 24.8 °F 80% 30.21 in 10.0 mi SSW 17.3 mph 26.5 mph N/A   Clear
9:15 PM 28.4 °F 16.6 °F 26.6 °F 93% 30.21 in 10.0 mi SSW 16.1 mph 21.9 mph N/A   Clear
9:35 PM 28.4 °F 17.5 °F 26.6 °F 93% 30.20 in 10.0 mi SSW 13.8 mph - N/A   Clear
9:55 PM 28.4 °F 17.5 °F 26.6 °F 93% 30.18 in 10.0 mi SSW 13.8 mph - N/A   Clear
10:15 PM 26.6 °F 15.7 °F 26.6 °F 100% 30.17 in 10.0 mi SSW 12.7 mph - N/A   Clear
10:35 PM 26.6 °F 15.7 °F 26.6 °F 100% 30.17 in 10.0 mi SW 12.7 mph - N/A   Clear
10:55 PM 26.6 °F 15.2 °F 26.6 °F 100% 30.16 in 10.0 mi SW 13.8 mph - N/A   Clear
11:15 PM 26.6 °F 15.2 °F 26.6 °F 100% 30.14 in 10.0 mi SSW 13.8 mph 20.7 mph N/A   Clear
11:35 PM 26.6 °F 15.2 °F 26.6 °F 100% 30.12 in 10.0 mi SSW 13.8 mph - N/A   Clear
11:55 PM 28.4 °F 16.6 °F 26.6 °F 93% 30.11 in 10.0 mi SSW 16.1 mph 21.9 mph N/A   Clear